STARLINK-34053

Satellite information

Favourite Embed

Satellite Type and Status

PAYLOADIN ORBIT

Key statistics

Satellite STARLINK-34053 at a glance.

Uptime

220

Days in orbit

Revolutions

≈ 15.3

Per day

Orbit

LEO

Low Earth Orbit

Inclination

43.0

Latest

Satellite identification and parameters

Extended collection of information and parameters for STARLINK-34053.

Object identification

Identified? True

Debris? False

Object name: STARLINK-34053

International designator: 2025-093B

Object number (NORAD): 63837

Object ID (CCSDS): 63837

Country: UNITED STATES OF AMERICA (US)

Current information (Y/N): Y

RCS size: LARGE

Orbital parameters

Period: 94.265 minutes

Inclination: 43.0004 deg

SMA: 6861.11 km

Apoapsis: 483.073 km

Periapsis: 482.877 km

RAAN: 214.9399 deg

Eccentricy: 0.00001426

Argument of periapsis: 330.6684 deg

Mean anomaly: 29.416 deg

Mean motion: 15.27605391 rev/day

Mean motion (dot): 0.00029153 rev/day2

B* drag term: 0.0010639158 1/REarth

Two-line elements (TLE)

Creation date: Dec. 12, 2025, 3:16 a.m.

Reference frame: TEME

Reference center: EARTH

Epoch: Dec. 11, 2025, 4:42 p.m. UTC

TLE line 0: 0 STARLINK-34053

TLE line 1: 1 63837U 25093B 25345.69613282 .00029153 00000-0 10639-2 0 9993

TLE line 2: 2 63837 43.0004 214.9399 0000143 330.6684 29.4160 15.27605391 34452

Live tracking on map

Real-time ground track for satellite STARLINK-34053.

In-orbit conjunctions

There are no conjunctions computed for STARLINK-34053, at the moment. Check back to stay up to date, as we update our databases every day.

Go to all conjunctions

Associated space launch

A batch of 28 satellites for the Starlink mega-constellation - SpaceX's project for space-based Internet communication system.

STARLINK-34053 was lifted into orbit during the mission ‘Falcon 9 Block 5 | Starlink Group 6-93’, on board a Falcon 9 space rocket.

The launch took place on May 7, 2025, 1:17 a.m. from Space Launch Complex 40.

For more information about the launch, click the button.

Launch to space Falcon 9 Block 5 | Starlink Group 6-93
Falcon 9 Block 5 | Starlink Group 6-93

Agency: SpaceX

Status: Launch Successful

Launch date: May 7, 2025, 1:17 a.m. UTC

Rocket: Falcon 9

Launch pad: Space Launch Complex 40

Location: Cape Canaveral SFS, FL, USA

...

Latest news about this satellite

News about space launch
Launch Roundup: SpaceX to launch 250th mission from SLC-40

SpaceX is on course to launch its 250th mission from SLC-40 in Florida this week.… The post Launch Roundup: SpaceX to launch 250th mission from SLC-40 appeared first on NASASpaceFlight.com.

News about space launch
Live coverage: SpaceX to launch 28 Starlink satellites on Falcon 9 rocket from Cape Canaveral

The mission will be SpaceX’s 470th Falcon 9 rocket launch to date. Liftoff from pad 40 at Cape Canaveral Space Force Station is targeting 8:22 p.m. EDT (0022 UTC).

News about space launch
Launch Roundup: Starlink missions fill launch manifest, Biomass and Alpha launch

This week’s schedule includes up to six Starlink launches from Florida and California. Arianespace launched… The post Launch Roundup: Starlink missions fill launch manifest, Biomass and Alpha launch appeared first on NASASpaceFlight.com.


Newsletter sign-up

Weekly statistics, charts and insights to help you stay on top of the space industry.